sat.trackr.live / text

‹ back to catalog

SKYCRAFT-4C

NORAD 64896 · 2025-154H

PAYLOAD ACTIVE UNKNOWN

§ Identity

Operator
Country
AUS
Launch date
2025-07-23
Launch site
AFWTR
Launch vehicle
Mass (kg)
RCS (m²)

External: N2YO · Heavens-Above · Gunter

§ Orbital elements

Epoch: 2026-05-25T03:04:27.115104Z

Period
96.31 min
Inclination
97.6698°
Eccentricity
0.0004711
Mean motion
14.95138069 rev/d
Perigee alt
578.7 km
Apogee alt
585.2 km
Semi-major
6,960.1 km
B*
2.7639e-4
RAAN
209.7551°
Arg perigee
356.5999°
Mean anomaly
3.5189°
Rev number
19,570

§ Raw data

SKYCRAFT-4C1 64896U 25154H   26145.12809161  .00002977  00000+0  27639-3 0  99902 64896  97.6698 209.7551 0004711 356.5999   3.5189 14.95138069195702

JSON: /api/v1/satellites/64896 · /tle

For live sub-satellite position, see the globe view (requires WebGL).

§ Visibility from observer

Set your observer location to see the next 7 days of passes ≥ 10°. The values pass through the URL so the page stays shareable.

No JS? Fill the form by hand. The geolocation button needs JavaScript.